Location: Estes Par
(40.3770°N, 10.0000°W)
Time: 18:52:49
(UTC-07:00)

ISS - Visible Passes

Search period start: 19 February 2018 00:00
Search period end: 01 March 2018 00:00
Orbit: 403 x 407 km, 51.6° (Epoch: 20 February)

Date Brightness Start Highest point End Pass type
(mag) Time Alt. Az. Time Alt. Az. Time Alt. Az.
24 Feb -0.8 23:12:52 10° SSE 23:14:40 14° SE 23:16:27 10° E visible
26 Feb -2.3 23:03:21 10° SSW 23:06:19 34° SE 23:09:19 10° ENE visible
27 Feb -1.4 22:13:42 17° SE 22:14:12 18° SE 22:16:28 10° E visible
28 Feb -3.9 22:56:40 31° SW 22:58:05 88° SE 23:01:21 10° NE visible
